Weather History for Kaneohe MCBH, HI

Change the Weather History Date:

Wednesday, July 3, 2013

  Actual Average Record
Temperature  
Mean Temperature 78 °F -  
Max Temperature 84 °F 79 °F 84 °F (2006)
Min Temperature 73 °F 72 °F 71 °F (1998)
Cooling Degree Days 14    
Growing Degree Days 28 (Base 50)    
Moisture  
Dew Point 68 °F    
Average Humidity 72    
Maximum Humidity 86    
Minimum Humidity 54    
Precipitation  
Precipitation 0.00 in - - ()
Sea Level Pressure  
Sea Level Pressure 29.98 in    
Wind  
Wind Speed 7 mph (ENE)    
Max Wind Speed 12 mph    
Max Gust Speed 16 mph    
Visibility 7 miles    
Events Rain    
Averages and records for this station are not official NWS values.
T = Trace of Precipitation, MM = Missing Value Source: NWS Daily Summary

Daily Weather History Graph

Daily Weather History Graph

Search for Another Location

Airport:

Trip Planner

Search our weather history database for the weather conditions in past years. The results will help you decide how hot, cold, wet, or windy it might be!

Date:

Astronomy

Jul. 03, 2013 Rise Set
Actual Time 5:53 AM HST 7:17 PM HST
Civil Twilight 5:28 AM HST 7:42 PM HST
Nautical Twilight 4:58 AM HST 8:11 PM HST
Astronomical Twilight 4:28 AM HST 8:42 PM HST
Moon 2:25 AM HST (7/3) 3:48 PM HST (7/3)
Length of Visible Light 14h 13m
Length of Day
13h 24m
Waning Crescent, 16% of the Moon is Illuminated
Jul 3
Waning Crescent
Jul 7
New
Jul 15
First Quarter
Jul 22
Full
Jul 29
Last Quarter

Hourly Weather History & Observations

Time (HST) Temp. Heat Index Dew Point Humidity Pressure Visibility Wind Dir Wind Speed Gust Speed Precip Events Conditions
12:57 AM 73.4 °F - 68.0 °F 83% 29.96 in 10.0 mi ENE 5.8 mph - N/A   Scattered Clouds
1:57 AM 73.4 °F - 66.9 °F 80% 29.95 in 10.0 mi ENE 6.9 mph - N/A   Scattered Clouds
2:57 AM 73.4 °F - 66.9 °F 80% 29.94 in 10.0 mi ENE 4.6 mph - N/A   Mostly Cloudy
3:13 AM - - - N/A% 29.95 in - East 9.2 mph - 0.00 in Rain Light Rain
3:20 AM - - - N/A% 29.96 in - ENE 9.2 mph - 0.00 in Rain Heavy Rain
3:27 AM 73.4 °F - 66.2 °F 78% 29.96 in - NE 6.9 mph - 0.00 in Rain Light Rain
3:57 AM 73.4 °F - 66.9 °F 80% 29.95 in 7.0 mi East 3.5 mph - 0.00 in   Overcast
4:57 AM 73.4 °F - 69.1 °F 86% 29.95 in 7.0 mi East 4.6 mph - N/A   Overcast
5:57 AM 73.4 °F - 68.0 °F 83% 29.97 in 7.0 mi ENE 3.5 mph - 0.00 in Rain Light Rain
6:57 AM 75.2 °F - 68.0 °F 78% 29.98 in 7.0 mi East 6.9 mph - 0.00 in   Overcast
7:57 AM 76.3 °F - 68.0 °F 75% 29.99 in 7.0 mi ENE 8.1 mph - N/A   Mostly Cloudy
8:57 AM 77.0 °F - 69.1 °F 76% 30.00 in 7.0 mi ENE 10.4 mph - N/A   Overcast
9:57 AM 78.8 °F - 70.0 °F 74% 30.01 in 7.0 mi ENE 9.2 mph 16.1 mph N/A   Overcast
10:57 AM 80.6 °F 83.6 °F 69.1 °F 68% 30.01 in 7.0 mi ENE 6.9 mph - N/A   Mostly Cloudy
11:57 AM 80.6 °F 83.2 °F 68.0 °F 65% 30.00 in 7.0 mi East 9.2 mph - N/A   Mostly Cloudy
12:57 PM 82.4 °F 85.4 °F 68.0 °F 62% 30.00 in 7.0 mi ENE 11.5 mph 16.1 mph N/A   Mostly Cloudy
1:57 PM 84.2 °F 86.3 °F 66.0 °F 54% 29.98 in 7.0 mi ENE 9.2 mph - N/A   Mostly Cloudy
2:57 PM 84.2 °F 87.3 °F 68.0 °F 58% 29.97 in 7.0 mi ENE 9.2 mph - N/A   Mostly Cloudy
3:57 PM 80.6 °F 82.7 °F 66.0 °F 61% 29.96 in 7.0 mi NE 10.4 mph - N/A   Mostly Cloudy
4:57 PM 80.6 °F 83.2 °F 68.0 °F 65% 29.96 in 7.0 mi East 9.2 mph - N/A   Mostly Cloudy
5:57 PM 78.8 °F - 66.9 °F 67% 29.96 in 7.0 mi NE 8.1 mph - N/A   Mostly Cloudy
6:57 PM 82.0 °F 84.5 °F 66.9 °F 60% 29.98 in 7.0 mi ENE 5.8 mph - N/A   Mostly Cloudy
7:57 PM 81.0 °F 83.3 °F 66.9 °F 62% 29.99 in 7.0 mi East 4.6 mph - N/A   Mostly Cloudy
8:57 PM 77.0 °F - 66.9 °F 71% 30.00 in 7.0 mi ENE 5.8 mph - N/A   Partly Cloudy
9:04 PM - - - N/A% - - North - - N/A   Unknown
9:57 PM 75.2 °F - 66.9 °F 75% 30.01 in 7.0 mi East 4.6 mph - N/A   Partly Cloudy
10:57 PM 75.7 °F - 66.9 °F 74% 30.02 in 7.0 mi ENE 3.5 mph - N/A   Clear
11:57 PM 74.8 °F - 66.9 °F 76% 30.02 in 7.0 mi Calm Calm - N/A   Clear